GTI047 SEQM-SEGU

Flight info

Callsign GTI047
Flight time 0h 29m
Altitude 20000
Route TEMOX3B TEMOX TEMOX2
Aircraft B748/H-SDE3FGHIM1M2RWXY/LB1

Departure

Time 2026-05-05 03:18
Airport Mariscal Sucre International Airport (SEQM)

Arrival

Time 2026-05-05 03:48
Airport José Joaquín de Olmedo International Airport (SEGU)
Time Latitude Longitude Altitude Speed Heading
2026-05-05 02:34 -0.12826 -78.35758 7909 ft 0 kts 269°
2026-05-05 02:57 -0.12826 -78.35754 7908 ft 2 kts 269°
2026-05-05 02:57 -0.12826 -78.35739 7909 ft 2 kts 268°
2026-05-05 02:57 -0.12825 -78.35724 7909 ft 2 kts 268°
2026-05-05 02:57 -0.12825 -78.35709 7909 ft 2 kts 268°
2026-05-05 02:58 -0.12824 -78.35698 7909 ft 3 kts 268°
2026-05-05 02:58 -0.12824 -78.35665 7910 ft 4 kts 271°
2026-05-05 02:58 -0.12826 -78.35632 7911 ft 4 kts 279°
2026-05-05 02:58 -0.12833 -78.35616 7912 ft 1 kts 326°
2026-05-05 02:59 -0.12840 -78.35613 7913 ft 0 kts
2026-05-05 02:59 -0.12851 -78.35616 7914 ft 1 kts 19°
2026-05-05 02:59 -0.12855 -78.35617 7914 ft 0 kts
2026-05-05 02:59 -0.12856 -78.35618 7914 ft 0 kts 340°
2026-05-05 03:00 -0.12859 -78.35616 7914 ft 0 kts 337°
2026-05-05 03:00 -0.12860 -78.35616 7914 ft 0 kts 356°
2026-05-05 03:00 -0.12866 -78.35616 7915 ft 1 kts 356°
2026-05-05 03:00 -0.12871 -78.35616 7915 ft 0 kts 357°
2026-05-05 03:06 -0.12865 -78.35616 7916 ft 2 kts 359°
2026-05-05 03:06 -0.12844 -78.35611 7914 ft 5 kts 17°
2026-05-05 03:07 -0.12777 -78.35602 7909 ft 10 kts 360°
2026-05-05 03:07 -0.12706 -78.35603 7905 ft 12 kts 358°
2026-05-05 03:07 -0.12606 -78.35606 7901 ft 16 kts 358°
2026-05-05 03:07 -0.12466 -78.35612 7892 ft 19 kts 359°
2026-05-05 03:08 -0.12388 -78.35613 7888 ft 8 kts 350°
2026-05-05 03:08 -0.12355 -78.35646 7887 ft 5 kts 265°
2026-05-05 03:08 -0.12380 -78.35673 7887 ft 6 kts 196°
2026-05-05 03:08 -0.12418 -78.35676 7889 ft 4 kts 177°
2026-05-05 03:09 -0.12445 -78.35674 7890 ft 3 kts 177°
2026-05-05 03:09 -0.12460 -78.35674 7891 ft 1 kts 177°
2026-05-05 03:09 -0.12483 -78.35672 7893 ft 5 kts 178°
2026-05-05 03:09 -0.12530 -78.35671 7895 ft 8 kts 178°
2026-05-05 03:10 -0.12596 -78.35668 7900 ft 10 kts 178°
2026-05-05 03:10 -0.12672 -78.35662 7903 ft 8 kts 155°
2026-05-05 03:10 -0.12716 -78.35613 7905 ft 11 kts 155°
2026-05-05 03:10 -0.12798 -78.35597 7910 ft 12 kts 178°
2026-05-05 03:11 -0.12895 -78.35593 7917 ft 15 kts 178°
2026-05-05 03:11 -0.13012 -78.35589 7924 ft 18 kts 177°
2026-05-05 03:11 -0.13147 -78.35583 7931 ft 20 kts 177°
2026-05-05 03:11 -0.13303 -78.35577 7941 ft 23 kts 178°
2026-05-05 03:12 -0.13464 -78.35571 7951 ft 20 kts 178°
2026-05-05 03:12 -0.13593 -78.35565 7957 ft 16 kts 176°
2026-05-05 03:12 -0.13695 -78.35559 7963 ft 12 kts 176°
2026-05-05 03:12 -0.13765 -78.35557 7967 ft 9 kts 178°
2026-05-05 03:13 -0.13831 -78.35554 7969 ft 9 kts 178°
2026-05-05 03:13 -0.13885 -78.35552 7973 ft 6 kts 178°
2026-05-05 03:13 -0.13920 -78.35551 7976 ft 4 kts 178°
2026-05-05 03:13 -0.13966 -78.35549 7977 ft 8 kts 178°
2026-05-05 03:14 -0.14039 -78.35546 7980 ft 12 kts 177°
2026-05-05 03:14 -0.14118 -78.35542 7985 ft 9 kts 176°
2026-05-05 03:14 -0.14157 -78.35540 7987 ft 6 kts 176°
2026-05-05 03:15 -0.14212 -78.35529 7990 ft 9 kts 152°
2026-05-05 03:15 -0.14246 -78.35492 7993 ft 6 kts 109°
2026-05-05 03:15 -0.14253 -78.35434 7995 ft 9 kts 86°
2026-05-05 03:15 -0.14247 -78.35385 7995 ft 6 kts 72°
2026-05-05 03:16 -0.14219 -78.35363 7994 ft 5 kts
2026-05-05 03:16 -0.14184 -78.35365 7993 ft 0 kts 356°
2026-05-05 03:17 -0.14183 -78.35365 7993 ft 0 kts 356°
2026-05-05 03:17 -0.14164 -78.35366 7992 ft 4 kts 356°
2026-05-05 03:17 -0.14087 -78.35370 7988 ft 19 kts 356°
2026-05-05 03:18 -0.13716 -78.35386 7968 ft 98 kts 358°
2026-05-05 03:18 -0.12698 -78.35430 7909 ft 191 kts 358°
2026-05-05 03:18 -0.11140 -78.35506 8269 ft 242 kts 356°
2026-05-05 03:18 -0.09426 -78.35657 9281 ft 261 kts 352°
2026-05-05 03:19 -0.06000 -78.36491 10547 ft 261 kts 341°
2026-05-05 03:19 -0.04271 -78.37155 10883 ft 272 kts 337°
2026-05-05 03:19 -0.02451 -78.37942 11032 ft 295 kts 339°
2026-05-05 03:20 -0.00517 -78.38718 11581 ft 303 kts 338°
2026-05-05 03:20 0.01523 -78.39528 11777 ft 326 kts 340°
2026-05-05 03:20 0.03761 -78.40292 11911 ft 349 kts 344°
2026-05-05 03:20 0.06180 -78.40984 12137 ft 369 kts 345°
2026-05-05 03:21 0.08601 -78.42067 12298 ft 393 kts 326°
2026-05-05 03:21 0.10623 -78.43984 12612 ft 411 kts 307°
2026-05-05 03:21 0.11966 -78.46554 13152 ft 420 kts 290°
2026-05-05 03:21 0.12957 -78.49284 13873 ft 424 kts 289°
2026-05-05 03:22 0.13963 -78.52045 14577 ft 426 kts 290°
2026-05-05 03:22 0.15004 -78.54837 15119 ft 431 kts 287°
2026-05-05 03:22 0.15429 -78.57780 15661 ft 435 kts 268°
2026-05-05 03:22 0.14953 -78.60753 16145 ft 433 kts 251°
2026-05-05 03:23 0.13622 -78.63422 16583 ft 439 kts 233°
2026-05-05 03:23 0.11477 -78.65659 17011 ft 443 kts 216°
2026-05-05 03:23 0.08835 -78.67240 17564 ft 444 kts 205°
2026-05-05 03:23 0.06032 -78.68529 18024 ft 449 kts 202°
2026-05-05 03:24 0.03171 -78.69804 18584 ft 452 kts 202°
2026-05-05 03:24 0.00278 -78.71116 19119 ft 456 kts 203°
2026-05-05 03:24 -0.02616 -78.72457 19612 ft 459 kts 203°
2026-05-05 03:24 -0.05517 -78.73830 19976 ft 464 kts 204°
2026-05-05 03:25 -0.08384 -78.75219 19955 ft 453 kts 204°
2026-05-05 03:25 -0.11242 -78.76637 19956 ft 453 kts 205°
2026-05-05 03:25 -0.14075 -78.78078 19897 ft 452 kts 206°
2026-05-05 03:25 -0.16806 -78.79504 20195 ft 442 kts 206°
2026-05-05 03:26 -0.19457 -78.81103 20365 ft 442 kts 214°
2026-05-05 03:26 -0.21893 -78.82963 20363 ft 446 kts 217°
2026-05-05 03:26 -0.24354 -78.84932 20307 ft 451 kts 217°
2026-05-05 03:26 -0.26785 -78.86896 20321 ft 452 kts 218°
2026-05-05 03:27 -0.29243 -78.88882 20354 ft 455 kts 218°
2026-05-05 03:27 -0.31717 -78.90882 20344 ft 458 kts 218°
2026-05-05 03:27 -0.34194 -78.92856 20298 ft 458 kts 217°
2026-05-05 03:27 -0.36683 -78.94852 20348 ft 458 kts 218°
2026-05-05 03:28 -0.39171 -78.96873 20302 ft 456 kts 218°
2026-05-05 03:28 -0.41630 -78.98878 20310 ft 457 kts 218°
2026-05-05 03:28 -0.44091 -79.00887 20315 ft 455 kts 218°
2026-05-05 03:28 -0.46570 -79.02910 20326 ft 457 kts 218°
2026-05-05 03:29 -0.49001 -79.04896 20324 ft 455 kts 218°
2026-05-05 03:29 -0.51494 -79.06936 20314 ft 458 kts 218°
2026-05-05 03:29 -0.53930 -79.08932 20305 ft 458 kts 218°
2026-05-05 03:29 -0.56399 -79.10953 20313 ft 458 kts 217°
2026-05-05 03:30 -0.59000 -79.12779 20272 ft 455 kts 210°
2026-05-05 03:30 -0.61828 -79.14226 20304 ft 454 kts 204°
2026-05-05 03:30 -0.64730 -79.15576 20226 ft 456 kts 203°
2026-05-05 03:30 -0.67573 -79.16891 20292 ft 454 kts 204°
2026-05-05 03:31 -0.70480 -79.18235 20208 ft 457 kts 203°
2026-05-05 03:31 -0.73360 -79.19569 20216 ft 453 kts 203°
2026-05-05 03:31 -0.76227 -79.20898 20243 ft 454 kts 203°
2026-05-05 03:31 -0.79126 -79.22241 20230 ft 457 kts 204°
2026-05-05 03:32 -0.82011 -79.23579 20166 ft 460 kts 203°
2026-05-05 03:32 -0.85021 -79.24969 19803 ft 495 kts 203°
2026-05-05 03:32 -0.88262 -79.26459 19456 ft 527 kts 203°
2026-05-05 03:32 -0.91571 -79.27988 18988 ft 515 kts 204°
2026-05-05 03:33 -0.94754 -79.29468 18515 ft 501 kts 203°
2026-05-05 03:33 -0.97887 -79.30924 17955 ft 481 kts 204°
2026-05-05 03:33 -1.00822 -79.32288 17463 ft 452 kts 203°
2026-05-05 03:33 -1.03627 -79.33592 17225 ft 444 kts 203°
2026-05-05 03:34 -1.06465 -79.34910 16842 ft 443 kts 203°
2026-05-05 03:34 -1.09247 -79.36201 16479 ft 441 kts 204°
2026-05-05 03:34 -1.12022 -79.37491 16143 ft 440 kts 204°
2026-05-05 03:34 -1.14815 -79.38789 15766 ft 435 kts 203°
2026-05-05 03:35 -1.17535 -79.40056 15365 ft 431 kts 203°
2026-05-05 03:35 -1.20281 -79.41334 14965 ft 427 kts 203°
2026-05-05 03:35 -1.22940 -79.42572 14611 ft 423 kts 203°
2026-05-05 03:35 -1.25632 -79.43827 14271 ft 419 kts 203°
2026-05-05 03:36 -1.28250 -79.45047 13860 ft 415 kts 204°
2026-05-05 03:36 -1.30852 -79.46262 13425 ft 410 kts 203°
2026-05-05 03:36 -1.33457 -79.47478 13033 ft 406 kts 204°
2026-05-05 03:36 -1.35984 -79.48659 12699 ft 403 kts 203°
2026-05-05 03:37 -1.38542 -79.49854 12434 ft 400 kts 204°
2026-05-05 03:37 -1.41066 -79.51037 12016 ft 397 kts 203°
2026-05-05 03:37 -1.43550 -79.52200 11649 ft 395 kts 204°
2026-05-05 03:37 -1.46055 -79.53377 11302 ft 393 kts 203°
2026-05-05 03:38 -1.48521 -79.54537 10999 ft 387 kts 204°
2026-05-05 03:38 -1.50897 -79.55662 10784 ft 372 kts 204°
2026-05-05 03:38 -1.53198 -79.56760 10610 ft 358 kts 204°
2026-05-05 03:38 -1.55430 -79.57795 10469 ft 346 kts 203°
2026-05-05 03:39 -1.57594 -79.58793 10275 ft 332 kts 203°
2026-05-05 03:39 -1.59638 -79.59736 10039 ft 320 kts 203°
2026-05-05 03:39 -1.61650 -79.60664 9586 ft 314 kts 204°
2026-05-05 03:39 -1.63600 -79.61566 9167 ft 299 kts 203°
2026-05-05 03:40 -1.65451 -79.62421 8948 ft 289 kts 204°
2026-05-05 03:40 -1.67291 -79.63270 8671 ft 289 kts 203°
2026-05-05 03:40 -1.69100 -79.64106 8444 ft 289 kts 203°
2026-05-05 03:40 -1.70943 -79.64959 8101 ft 290 kts 203°
2026-05-05 03:41 -1.72792 -79.65815 7780 ft 291 kts 203°
2026-05-05 03:41 -1.74634 -79.66669 7509 ft 291 kts 203°
2026-05-05 03:41 -1.76464 -79.67518 7203 ft 291 kts 204°
2026-05-05 03:41 -1.78328 -79.68385 6872 ft 292 kts 204°
2026-05-05 03:42 -1.80162 -79.69237 6586 ft 293 kts 204°
2026-05-05 03:42 -1.82023 -79.70104 6243 ft 293 kts 204°
2026-05-05 03:42 -1.83869 -79.70967 5926 ft 294 kts 204°
2026-05-05 03:42 -1.85718 -79.71832 5616 ft 294 kts 204°
2026-05-05 03:43 -1.87589 -79.72710 5290 ft 292 kts 204°
2026-05-05 03:43 -1.89412 -79.73568 4802 ft 283 kts 205°
2026-05-05 03:43 -1.91152 -79.74388 4523 ft 271 kts 204°
2026-05-05 03:43 -1.92838 -79.75188 4283 ft 268 kts 204°
2026-05-05 03:44 -1.94480 -79.76077 3979 ft 269 kts 209°
2026-05-05 03:44 -1.96113 -79.77023 3671 ft 269 kts 209°
2026-05-05 03:44 -1.97742 -79.77967 3384 ft 268 kts 209°
2026-05-05 03:44 -1.99355 -79.78906 3087 ft 268 kts 209°
2026-05-05 03:45 -2.00960 -79.79837 2825 ft 266 kts 209°
2026-05-05 03:45 -2.02539 -79.80740 2668 ft 255 kts 209°
2026-05-05 03:45 -2.04059 -79.81613 2369 ft 249 kts 209°
2026-05-05 03:45 -2.05546 -79.82476 2078 ft 238 kts 210°
2026-05-05 03:46 -2.06909 -79.83260 1944 ft 213 kts 209°
2026-05-05 03:46 -2.08130 -79.83958 1889 ft 191 kts 209°
2026-05-05 03:46 -2.09224 -79.84568 1775 ft 176 kts 207°
2026-05-05 03:46 -2.10317 -79.85089 1327 ft 170 kts 206°
2026-05-05 03:47 -2.11338 -79.85659 821 ft 164 kts 212°
2026-05-05 03:47 -2.12275 -79.86276 489 ft 160 kts 214°
2026-05-05 03:47 -2.13212 -79.86887 305 ft 161 kts 212°
2026-05-05 03:47 -2.14169 -79.87460 164 ft 161 kts 209°
2026-05-05 03:48 -2.15132 -79.88013 42 ft 152 kts 211°
2026-05-05 03:48 -2.15943 -79.88486 39 ft 114 kts 212°
2026-05-05 03:48 -2.16500 -79.88805 39 ft 46 kts 210°
2026-05-05 03:48 -2.16684 -79.88912 39 ft 13 kts 210°
2026-05-05 03:49 -2.16711 -79.88965 39 ft 9 kts 297°
2026-05-05 03:49 -2.16662 -79.88990 39 ft 8 kts
2026-05-05 03:49 -2.16605 -79.88969 39 ft 9 kts 24°
2026-05-05 03:49 -2.16546 -79.88937 39 ft 9 kts 32°
2026-05-05 03:50 -2.16484 -79.88900 39 ft 10 kts 29°
2026-05-05 03:50 -2.16416 -79.88863 39 ft 11 kts 29°
2026-05-05 03:50 -2.16341 -79.88821 39 ft 12 kts 30°
2026-05-05 03:50 -2.16262 -79.88776 39 ft 13 kts 30°
2026-05-05 03:51 -2.16181 -79.88728 39 ft 13 kts 31°
2026-05-05 03:51 -2.16094 -79.88675 39 ft 14 kts 30°
2026-05-05 03:51 -2.16003 -79.88625 39 ft 14 kts 29°
2026-05-05 03:51 -2.15936 -79.88586 39 ft 11 kts 31°
2026-05-05 03:52 -2.15865 -79.88544 39 ft 12 kts 29°
2026-05-05 03:52 -2.15789 -79.88502 39 ft 11 kts 29°
2026-05-05 03:52 -2.15742 -79.88476 38 ft 7 kts 30°
2026-05-05 03:52 -2.15694 -79.88448 39 ft 8 kts 30°
2026-05-05 03:53 -2.15649 -79.88423 38 ft 5 kts 22°
2026-05-05 03:53 -2.15620 -79.88432 38 ft 4 kts 303°
2026-05-05 03:53 -2.15603 -79.88460 38 ft 3 kts 300°
2026-05-05 03:53 -2.15598 -79.88468 38 ft 0 kts 300°
2026-05-05 03:54 -2.15597 -79.88470 38 ft 0 kts 300°